Point Salines, Grenada

7:24 PM AST on February 08, 2016 (GMT -0400)
Point Salines International

Weather History for TGPY - September, 2013

Change the Weather History Date:

Saturday, September 14, 2013

  Actual Average Record
Temperature  
Mean Temperature 80 °F -  
Max Temperature 87 °F 85 °F 89 °F (1998)
Min Temperature 74 °F 76 °F 74 °F (2013)
Cooling Degree Days 16    
Growing Degree Days 30 (Base 50)    
Moisture  
Dew Point 79 °F    
Average Humidity 82    
Maximum Humidity 94    
Minimum Humidity 72    
Precipitation  
Precipitation 0.47 in - - ()
Sea Level Pressure  
Sea Level Pressure 29.86 in    
Wind  
Wind Speed 12 mph ()    
Max Wind Speed 23 mph    
Max Gust Speed 34 mph    
Visibility 7.2 miles    
Events Rain , Thunderstorm    
Averages and records for this station are not official NWS values.
T = Trace of Precipitation, MM = Missing Value Source: Averaged Metar Reports

Daily Weather History Graph

Daily Weather History Graph

Search for Another Location

Airport or City:

Trip Planner

Search our weather history database for the weather conditions in past years. The results will help you decide how hot, cold, wet, or windy it might be!

Date:

Astronomy

Sep. 14, 2013 Rise Set
Actual Time 5:56 AM AST 6:08 PM AST
Civil Twilight 5:35 AM AST 6:29 PM AST
Nautical Twilight 5:10 AM AST 6:54 PM AST
Astronomical Twilight 4:45 AM AST 7:18 PM AST
Moon 2:07 PM AST (9/14) 1:05 AM AST (9/14)
Length of Visible Light 12h 54m
Length of Day
12h 12m
Waxing Gibbous, 72% of the Moon is Illuminated
Sep 14
Waxing Gibbous
Sep 19
Full
Sep 26
Last Quarter
Oct 4
New
Oct 11
First Quarter

Hourly Weather History & Observations

Time (AST) Temp. Heat Index Dew Point Humidity Pressure Visibility Wind Dir Wind Speed Gust Speed Precip Events Conditions
12:00 AM 80.6 °F 88.1 °F 78.8 °F 94% 29.83 in 6.2 mi Calm Calm - N/A Thunderstorm Scattered Clouds
1:00 AM 80.6 °F 87.1 °F 77.0 °F 89% 29.83 in 6.2 mi SSE 9.2 mph - N/A   Scattered Clouds
2:00 AM 82 °F - 75 °F 75% 29.81 in 7 mi SE 11.5 mph - -   Partly Cloudy
2:00 AM 82.4 °F 89.5 °F 75.2 °F 79% 29.80 in 6.2 mi SE 11.5 mph - N/A Thunderstorm Scattered Clouds
3:00 AM 82.4 °F 92.4 °F 78.8 °F 89% 29.80 in 6.2 mi SE 11.5 mph - N/A Thunderstorm Scattered Clouds
4:00 AM 82.4 °F 90.9 °F 77.0 °F 84% 29.80 in 6.2 mi South 11.5 mph - N/A Thunderstorm Mostly Cloudy
4:28 AM 82.4 °F 92.4 °F 78.8 °F 89% 29.80 in 6.2 mi South 11.5 mph - N/A Thunderstorm Thunderstorm
5:00 AM 83 °F - 80 °F 87% 29.83 in 6 mi SSE 9.2 mph - - Thunderstorm Thunderstorm
5:00 AM 84.2 °F 98.3 °F 80.6 °F 89% 29.83 in 6.2 mi SSE 9.2 mph - N/A Thunderstorm Thunderstorm
6:00 AM 78.8 °F - 77.0 °F 94% 29.83 in 6.2 mi SE 20.7 mph - N/A Rain Rain Showers
6:19 AM 78.8 °F - 77.0 °F 94% 29.86 in 6.2 mi SE 9.2 mph - N/A Thunderstorm Thunderstorm
7:00 AM 80.6 °F 87.1 °F 77.0 °F 89% 29.86 in 3.1 mi ESE 17.3 mph 34.5 mph N/A Rain , Thunderstorm Thunderstorms and Rain
8:00 AM 83 °F - 80 °F 86% 29.88 in 7 mi SSE 17.3 mph - - Rain Light Rain Showers
8:00 AM 82.4 °F 92.4 °F 78.8 °F 89% 29.89 in 6.2 mi SSE 17.3 mph - N/A   Mostly Cloudy
9:00 AM 84.2 °F 94.1 °F 77.0 °F 79% 29.89 in 6.2 mi SSE 18.4 mph - N/A   Mostly Cloudy
10:00 AM 86.0 °F 96.9 °F 77.0 °F 74% 29.89 in 6.2 mi South 18.4 mph - N/A   Mostly Cloudy
11:00 AM 87 °F - 79 °F 72% 29.91 in 15 mi SSE 17.3 mph - -   Widespread Dust
11:00 AM 87.8 °F 102.5 °F 78.8 °F 75% 29.89 in 6.2 mi SSE 17.3 mph - N/A   Mostly Cloudy
12:00 PM 87.8 °F 104.9 °F 80.6 °F 79% 29.89 in 6.2 mi SSE 17.3 mph - N/A   Mostly Cloudy
1:00 PM 87.8 °F 102.5 °F 78.8 °F 75% 29.86 in 6.2 mi SSE 16.1 mph - N/A   Mostly Cloudy
2:00 PM 87 °F - 80 °F 73% 29.86 in 14 mi SSE 17.3 mph - -   Widespread Dust
2:00 PM 87.8 °F 102.5 °F 78.8 °F 75% 29.86 in 6.2 mi SSE 17.3 mph - N/A   Mostly Cloudy
3:00 PM 87.8 °F 104.9 °F 80.6 °F 79% 29.83 in 6.2 mi SSE 17.3 mph - N/A   Mostly Cloudy
4:00 PM 84.2 °F 96.1 °F 78.8 °F 84% 29.83 in - North - - N/A   Mostly Cloudy
5:00 PM 86 °F - 80 °F 78% 29.85 in 12 mi SE 18.4 mph - -   Partly Cloudy
5:00 PM 86.0 °F 101.9 °F 80.6 °F 84% 29.83 in 6.2 mi SE 18.4 mph - N/A   Mostly Cloudy
6:00 PM 86.0 °F 96.9 °F 77.0 °F 74% 29.86 in 6.2 mi SE 17.3 mph - N/A   Scattered Clouds
7:00 PM 86.0 °F 99.3 °F 78.8 °F 79% 29.86 in 6.2 mi SE 20.7 mph - N/A Thunderstorm Mostly Cloudy
8:00 PM 85 °F - 82 °F 86% 29.90 in 12 mi SE 23.0 mph - -   Widespread Dust
8:00 PM 86.0 °F 101.9 °F 80.6 °F 84% 29.89 in 6.2 mi SE 23.0 mph - N/A   Scattered Clouds
9:00 PM 86.0 °F 96.9 °F 77.0 °F 74% 29.92 in 6.2 mi SE 13.8 mph - N/A   Scattered Clouds
10:00 PM 84.2 °F 96.1 °F 78.8 °F 84% 29.92 in 6.2 mi SE 20.7 mph - N/A   Scattered Clouds
11:00 PM 85 °F - 78 °F 76% 29.94 in 12 mi SE 13.8 mph - -   Widespread Dust
11:00 PM 84.2 °F 96.1 °F 78.8 °F 84% 29.92 in 6.2 mi SE 13.8 mph - N/A   Mostly Cloudy